Year,Month,Day,Hour,Minute,Value (Times are PST for temperature in C)
2008,08,25,16,02,17.20
2008,08,25,16,03,17.30
2008,08,25,16,04,17.30
2008,08,25,16,05,17.40
2008,08,25,16,06,17.50
2008,08,25,16,07,17.50
2008,08,25,16,08,17.50
2008,08,25,16,09,17.40
2008,08,25,16,10,17.40
2008,08,25,16,11,17.40
2008,08,25,16,12,17.50
2008,08,25,16,13,17.50
2008,08,25,16,14,17.50
2008,08,25,16,15,17.50
2008,08,25,16,16,17.50
2008,08,25,16,17,17.50
2008,08,25,16,18,17.50
2008,08,25,16,19,17.40
2008,08,25,16,20,17.40
2008,08,25,16,21,17.40
2008,08,25,16,22,17.40
2008,08,25,16,23,17.30
2008,08,25,16,24,17.30
2008,08,25,16,25,17.20
2008,08,25,16,26,17.20
2008,08,25,16,27,17.10
2008,08,25,16,28,17.10
2008,08,25,16,29,17.10
2008,08,25,16,30,17.10
2008,08,25,16,31,17.10
2008,08,25,16,32,17.10
2008,08,25,16,33,17.20
2008,08,25,16,34,17.20
2008,08,25,16,35,17.30
2008,08,25,16,36,17.30
2008,08,25,16,37,17.40
2008,08,25,16,38,17.40
2008,08,25,16,39,17.50
2008,08,25,16,40,17.50
2008,08,25,16,41,17.60
2008,08,25,16,42,17.70
2008,08,25,16,43,17.70
2008,08,25,16,44,17.80
2008,08,25,16,45,17.80
2008,08,25,16,46,17.80
2008,08,25,16,47,17.80
2008,08,25,16,48,17.90
2008,08,25,16,49,17.90
2008,08,25,16,50,17.90
2008,08,25,16,51,17.90
2008,08,25,16,52,17.90
2008,08,25,16,53,17.90
2008,08,25,16,54,18.00
2008,08,25,16,55,18.00
2008,08,25,16,56,18.10
2008,08,25,16,57,18.10
2008,08,25,16,58,18.10
2008,08,25,16,59,18.10
2008,08,25,17,00,18.10
2008,08,25,17,01,18.10
2008,08,25,17,02,18.10
2008,08,25,17,03,18.10
2008,08,25,17,04,18.10
2008,08,25,17,05,18.10
2008,08,25,17,06,18.10
2008,08,25,17,07,18.20
2008,08,25,17,08,18.20
2008,08,25,17,09,18.30
2008,08,25,17,10,18.30
2008,08,25,17,11,18.30
2008,08,25,17,12,18.40
2008,08,25,17,13,18.40
2008,08,25,17,14,18.50
2008,08,25,17,15,18.60
2008,08,25,17,16,18.60
2008,08,25,17,17,18.60
2008,08,25,17,18,18.70
2008,08,25,17,19,18.80
2008,08,25,17,20,18.80
2008,08,25,17,21,18.80
2008,08,25,17,22,18.90
2008,08,25,17,23,18.90
2008,08,25,17,24,18.90
2008,08,25,17,25,19.00
2008,08,25,17,26,19.10
2008,08,25,17,27,19.00
2008,08,25,17,28,19.00
2008,08,25,17,29,18.90
2008,08,25,17,30,18.90
2008,08,25,17,31,18.90
2008,08,25,17,32,18.90
2008,08,25,17,33,18.80
2008,08,25,17,34,18.80
2008,08,25,17,35,18.80
2008,08,25,17,36,18.80
2008,08,25,17,37,18.80
2008,08,25,17,38,18.80
2008,08,25,17,39,18.80
2008,08,25,17,40,18.80
2008,08,25,17,41,18.80
2008,08,25,17,42,18.70
2008,08,25,17,43,18.70
2008,08,25,17,44,18.70
2008,08,25,17,45,18.70
2008,08,25,17,46,18.60
2008,08,25,17,47,18.60
2008,08,25,17,48,18.60
2008,08,25,17,49,18.60
2008,08,25,17,50,18.70
2008,08,25,17,51,18.70
2008,08,25,17,52,18.70
2008,08,25,17,53,18.70
2008,08,25,17,54,18.60
2008,08,25,17,55,18.60
2008,08,25,17,56,18.60
2008,08,25,17,57,18.60
2008,08,25,17,58,18.50
2008,08,25,17,59,18.50
2008,08,25,18,00,18.40
2008,08,25,18,01,18.40
2008,08,25,18,02,18.40
2008,08,25,18,03,18.40
2008,08,25,18,04,18.40
2008,08,25,18,05,18.40
2008,08,25,18,06,18.40
2008,08,25,18,07,18.40
2008,08,25,18,08,18.40
2008,08,25,18,09,18.50
2008,08,25,18,10,18.60
2008,08,25,18,11,18.70
2008,08,25,18,12,18.70
2008,08,25,18,13,18.70
2008,08,25,18,14,18.70
2008,08,25,18,15,18.80
2008,08,25,18,16,18.80
2008,08,25,18,17,18.80
2008,08,25,18,18,18.80
2008,08,25,18,19,18.80
2008,08,25,18,20,18.70
2008,08,25,18,21,18.80
2008,08,25,18,22,18.80
2008,08,25,18,23,18.70
2008,08,25,18,24,18.70
2008,08,25,18,25,18.70
2008,08,25,18,26,18.70
2008,08,25,18,27,18.70
2008,08,25,18,28,18.80
2008,08,25,18,29,18.80
2008,08,25,18,30,18.70
2008,08,25,18,31,18.70
2008,08,25,18,32,18.70
2008,08,25,18,33,18.70
2008,08,25,18,34,18.60
2008,08,25,18,35,18.60
2008,08,25,18,36,18.50
2008,08,25,18,37,18.40
2008,08,25,18,38,18.30
2008,08,25,18,39,18.20
2008,08,25,18,40,18.20
2008,08,25,18,41,18.10
2008,08,25,18,42,18.10
2008,08,25,18,43,18.00
2008,08,25,18,44,17.90
2008,08,25,18,45,17.90
2008,08,25,18,46,17.80
2008,08,25,18,47,17.80
2008,08,25,18,48,17.70
2008,08,25,18,49,17.70
2008,08,25,18,50,17.70
2008,08,25,18,51,17.70
2008,08,25,18,52,17.60
2008,08,25,18,53,17.60
2008,08,25,18,54,17.50
2008,08,25,18,55,17.50
2008,08,25,18,56,17.50
2008,08,25,18,57,17.50
2008,08,25,18,58,17.40
2008,08,25,18,59,17.40
2008,08,25,19,00,17.40
2008,08,25,19,01,17.40
2008,08,25,19,02,17.40
2008,08,25,19,03,17.40
2008,08,25,19,04,17.30
2008,08,25,19,05,17.30
2008,08,25,19,06,17.30
2008,08,25,19,07,17.40
2008,08,25,19,08,17.40
2008,08,25,19,09,17.40
2008,08,25,19,10,17.40
2008,08,25,19,11,17.40
2008,08,25,19,12,17.40
2008,08,25,19,13,17.50
2008,08,25,19,14,17.50
2008,08,25,19,15,17.50
2008,08,25,19,16,17.60
2008,08,25,19,17,17.60
2008,08,25,19,18,17.60
2008,08,25,19,19,17.60
2008,08,25,19,20,17.60
2008,08,25,19,21,17.60
2008,08,25,19,22,17.60
2008,08,25,19,23,17.60
2008,08,25,19,24,17.50
2008,08,25,19,25,17.50
2008,08,25,19,26,17.40
2008,08,25,19,27,17.40
2008,08,25,19,28,17.30
2008,08,25,19,29,17.30
2008,08,25,19,30,17.30
2008,08,25,19,31,17.30
2008,08,25,19,32,17.20
2008,08,25,19,33,17.20
2008,08,25,19,34,17.20
2008,08,25,19,35,17.20
2008,08,25,19,36,17.20
2008,08,25,19,37,17.20
2008,08,25,19,38,17.10
2008,08,25,19,39,17.10
2008,08,25,19,40,17.10
2008,08,25,19,41,17.00
2008,08,25,19,42,17.00
2008,08,25,19,43,17.00
2008,08,25,19,44,16.90
2008,08,25,19,45,16.90
2008,08,25,19,46,16.80
2008,08,25,19,47,16.80
2008,08,25,19,48,16.70
2008,08,25,19,49,16.70
2008,08,25,19,50,16.70
2008,08,25,19,51,16.70
2008,08,25,19,52,16.60
2008,08,25,19,53,16.60
2008,08,25,19,54,16.60
2008,08,25,19,55,16.60
2008,08,25,19,56,16.60
2008,08,25,19,57,16.60
2008,08,25,19,58,16.50
2008,08,25,19,59,16.50
2008,08,25,20,00,16.50
2008,08,25,20,01,16.40
2008,08,25,20,02,16.40
2008,08,25,20,03,16.40
2008,08,25,20,04,16.40
2008,08,25,20,05,16.30
2008,08,25,20,06,16.30
2008,08,25,20,07,16.30
2008,08,25,20,08,16.30
2008,08,25,20,09,16.20
2008,08,25,20,10,16.20
2008,08,25,20,11,16.20
2008,08,25,20,12,16.20
2008,08,25,20,13,16.20
2008,08,25,20,14,16.20
2008,08,25,20,15,16.20
2008,08,25,20,16,16.10
2008,08,25,20,17,16.10
2008,08,25,20,18,16.10
2008,08,25,20,19,16.10
2008,08,25,20,20,16.10
2008,08,25,20,21,16.10
2008,08,25,20,22,16.10
2008,08,25,20,23,16.10
2008,08,25,20,24,16.10
2008,08,25,20,25,16.10
2008,08,25,20,26,16.10
2008,08,25,20,27,16.10
2008,08,25,20,28,16.00
2008,08,25,20,29,16.00
2008,08,25,20,30,16.00
2008,08,25,20,31,16.00
2008,08,25,20,32,16.00
2008,08,25,20,33,15.90
2008,08,25,20,34,15.90
2008,08,25,20,35,15.90
2008,08,25,20,36,15.90
2008,08,25,20,37,15.80
2008,08,25,20,38,15.80
2008,08,25,20,39,15.80
2008,08,25,20,40,15.80
2008,08,25,20,41,15.80
2008,08,25,20,42,15.80
2008,08,25,20,43,15.80
2008,08,25,20,44,15.80
2008,08,25,20,45,15.70
2008,08,25,20,46,15.70
2008,08,25,20,47,15.70
2008,08,25,20,48,15.70
2008,08,25,20,49,15.60
2008,08,25,20,50,15.60
2008,08,25,20,51,15.60
2008,08,25,20,52,15.60
2008,08,25,20,53,15.60
2008,08,25,20,54,15.60
2008,08,25,20,55,15.60
2008,08,25,20,56,15.60
2008,08,25,20,57,15.60
2008,08,25,20,58,15.50
2008,08,25,20,59,15.50
2008,08,25,21,00,15.50
2008,08,25,21,01,15.50
2008,08,25,21,02,15.50
2008,08,25,21,03,15.50
2008,08,25,21,04,15.50
2008,08,25,21,05,15.50
2008,08,25,21,06,15.40
2008,08,25,21,07,15.40
2008,08,25,21,08,15.40
2008,08,25,21,09,15.40
2008,08,25,21,10,15.40
2008,08,25,21,11,15.40
2008,08,25,21,12,15.40
2008,08,25,21,13,15.40
2008,08,25,21,14,15.40
2008,08,25,21,15,15.30
2008,08,25,21,16,15.30
2008,08,25,21,17,15.30
2008,08,25,21,18,15.30
2008,08,25,21,19,15.30
2008,08,25,21,20,15.30
2008,08,25,21,21,15.20
2008,08,25,21,22,15.20
2008,08,25,21,23,15.20
2008,08,25,21,24,15.10
2008,08,25,21,25,15.10
2008,08,25,21,26,15.00
2008,08,25,21,27,15.00
2008,08,25,21,28,15.00
2008,08,25,21,29,15.00
2008,08,25,21,30,15.00
2008,08,25,21,31,15.00
2008,08,25,21,32,15.00
2008,08,25,21,33,15.00
2008,08,25,21,34,14.90
2008,08,25,21,35,14.90
2008,08,25,21,36,14.90
2008,08,25,21,37,14.90
2008,08,25,21,38,14.80
2008,08,25,21,39,14.80
2008,08,25,21,40,14.80
2008,08,25,21,41,14.80
2008,08,25,21,42,14.80
2008,08,25,21,43,14.80
2008,08,25,21,44,14.80
2008,08,25,21,45,14.80
2008,08,25,21,46,14.80
2008,08,25,21,47,14.80
2008,08,25,21,48,14.80
2008,08,25,21,49,14.80
2008,08,25,21,50,14.80
2008,08,25,21,51,14.80
2008,08,25,21,52,14.80
2008,08,25,21,53,14.70
2008,08,25,21,54,14.70
2008,08,25,21,55,14.70
2008,08,25,21,56,14.70
2008,08,25,21,57,14.60
2008,08,25,21,58,14.60
2008,08,25,21,59,14.60
2008,08,25,22,00,14.60
2008,08,25,22,01,14.50
2008,08,25,22,02,14.50
2008,08,25,22,03,14.50
2008,08,25,22,04,14.40
2008,08,25,22,05,14.50
2008,08,25,22,06,14.50
2008,08,25,22,07,14.40
2008,08,25,22,08,14.40
2008,08,25,22,09,14.40
2008,08,25,22,10,14.40
2008,08,25,22,11,14.30
2008,08,25,22,12,14.30
2008,08,25,22,13,14.30
2008,08,25,22,14,14.20
2008,08,25,22,15,14.10
2008,08,25,22,16,14.00
2008,08,25,22,17,13.90
2008,08,25,22,18,13.80
2008,08,25,22,19,13.70
2008,08,25,22,20,13.60
2008,08,25,22,21,13.50
2008,08,25,22,22,13.30
2008,08,25,22,23,13.20
2008,08,25,22,24,13.10
2008,08,25,22,25,13.10
2008,08,25,22,26,13.00
2008,08,25,22,27,12.90
2008,08,25,22,28,12.80
2008,08,25,22,29,12.80
2008,08,25,22,30,12.70
2008,08,25,22,31,12.60
2008,08,25,22,32,12.60
2008,08,25,22,33,12.60
2008,08,25,22,34,12.60
2008,08,25,22,35,12.60
2008,08,25,22,36,12.60
2008,08,25,22,37,12.60
2008,08,25,22,38,12.60
2008,08,25,22,39,12.60
2008,08,25,22,40,12.60
2008,08,25,22,41,12.70
2008,08,25,22,42,12.70
2008,08,25,22,43,12.70
2008,08,25,22,44,12.70
2008,08,25,22,45,12.70
2008,08,25,22,46,12.70
2008,08,25,22,47,12.70
2008,08,25,22,48,12.70
2008,08,25,22,49,12.70
2008,08,25,22,50,12.70
2008,08,25,22,51,12.70
2008,08,25,22,52,12.60
2008,08,25,22,53,12.60
2008,08,25,22,54,12.70
2008,08,25,22,55,12.70
2008,08,25,22,56,12.70
2008,08,25,22,57,12.70
2008,08,25,22,58,12.80
2008,08,25,22,59,12.90
2008,08,25,23,00,12.90
2008,08,25,23,01,13.00
2008,08,25,23,02,13.10
2008,08,25,23,03,13.20
2008,08,25,23,04,13.20
2008,08,25,23,05,13.30
2008,08,25,23,06,13.30
2008,08,25,23,07,13.40
2008,08,25,23,08,13.40
2008,08,25,23,09,13.40
2008,08,25,23,10,13.40
2008,08,25,23,11,13.40
2008,08,25,23,12,13.40
2008,08,25,23,13,13.40
2008,08,25,23,14,13.40
2008,08,25,23,15,13.40
2008,08,25,23,16,13.40
2008,08,25,23,17,13.50
2008,08,25,23,18,13.50
2008,08,25,23,19,13.50
2008,08,25,23,20,13.60
2008,08,25,23,21,13.60
2008,08,25,23,22,13.60
2008,08,25,23,23,13.60
2008,08,25,23,24,13.60
2008,08,25,23,25,13.60
2008,08,25,23,26,13.60
2008,08,25,23,27,13.60
2008,08,25,23,28,13.50
2008,08,25,23,29,13.50
2008,08,25,23,30,13.40
2008,08,25,23,31,13.30
2008,08,25,23,32,13.30
2008,08,25,23,33,13.20
2008,08,25,23,34,13.20
2008,08,25,23,35,13.10
2008,08,25,23,36,13.10
2008,08,25,23,37,13.10
2008,08,25,23,38,13.10
2008,08,25,23,39,13.10
2008,08,25,23,40,13.10
2008,08,25,23,41,13.10
2008,08,25,23,42,13.20
2008,08,25,23,43,13.20
2008,08,25,23,44,13.30
2008,08,25,23,45,13.40
2008,08,25,23,46,13.50
2008,08,25,23,47,13.50
2008,08,25,23,48,13.60
2008,08,25,23,49,13.60
2008,08,25,23,50,13.60
2008,08,25,23,51,13.50
2008,08,25,23,52,13.40
2008,08,25,23,53,13.30
2008,08,25,23,54,13.30
2008,08,25,23,55,13.20
2008,08,25,23,56,13.10
2008,08,25,23,57,13.00
2008,08,25,23,58,12.90
2008,08,25,23,59,12.90
